Location: Unspecified
(51.6250°N, 0.8230°E)
Time: 06:02:29
(UTC+00:00)

ISS - Pass Details

Date: 03 February 2021
Orbit: 417 x 422 km, 51.6° (Epoch: 02 March)

Event Time Altitude Azimuth Distance (km) Brightness Sun altitude
Rises 17:52:10 0° 284° (WNW) 2,375 1.3 -9.9°
Reaches altitude 10° 17:54:20 10° 277° (W) 1,509 0.3 -10.2°
Maximum altitude 17:57:33 41° 205° (SSW) 624 -2.6 -10.7°
Drops below altitude 10° 18:00:46 10° 134° (SE) 1,505 -1.3 -11.2°
Enters shadow 18:01:30 - 131° (SE) 1,797 -0.9 -11.3°
